Location: Gad�tanya
(48.0500°N, 20.8500°E)
Time: 11:33:55
(UTC+00:00)

Genesis I - Pass Details

Date: 05 July 2020
Orbit: 509 x 513 km, 64.5° (Epoch: 15 August)

Event Time Altitude Azimuth Distance (km) Brightness Sun altitude
Exits shadow 22:18:50 20° 246° (WSW) 1,234 4.9 -19.1°
Maximum altitude 22:21:16 48° 314° (NW) 675 4.0 -19.1°
Drops below altitude 10° 22:25:02 10° 30° (NNE) 1,738 6.7 -19.2°
Sets 22:27:17 0° 36° (NE) 2,627 7.6 -19.2°
